カタログに戻る

LAGEOS 2 AKM

MAGE 1S

運用中MEO
NORAD 22197·ROCKET BODY·🇮🇹 Italy

打ち上げ Oct 22, 1992 から Cape Canaveral Space Force Station

Loading…

次のパス (今後24時間)

TLE

最新Source: Space-Track

元期: Sep 14, 2026, 05:41 UTC

1 22197U 92070E   26257.23685232 -.00000009  00000-0  00000-0 0  9992
2 22197  52.6396 206.7725 0137864 229.8789 128.9619  6.47398971803738

AllMySatでLAGEOS 2 AKMをリアルタイム追跡

Download on the App Store